owner,sensor,date,latitude,longitude,vertical_datum,wind_speed,wind_to_direction,wind_speed_of_gust,qcFlag 
FIT,ioos:station:wmo:SIPF1:1,2015-09-01T00:00:00Z,27.8620,-80.4450,1.0,3.2,230.0,99.0,'11111222,11111222,11144222' 
FIT,ioos:station:wmo:SIPF1:1,2015-09-01T00:15:00Z,27.8620,-80.4450,1.0,3.1,227.0,99.0,'11111222,11111222,11144222' 
FIT,ioos:station:wmo:SIPF1:1,2015-09-01T00:30:00Z,27.8620,-80.4450,1.0,2.5,227.0,99.0,'11111222,11111222,11144222' 
FIT,ioos:station:wmo:SIPF1:1,2015-09-01T00:45:00Z,27.8620,-80.4450,1.0,1.9,206.0,99.0,'11111222,11111222,11144222' 
FIT,ioos:station:wmo:SIPF1:1,2015-09-01T01:00:00Z,27.8620,-80.4450,1.0,2.3,204.0,99.0,'11111222,11111222,11144222' 
FIT,ioos:station:wmo:SIPF1:1,2015-09-01T01:15:00Z,27.8620,-80.4450,1.0,3.4,192.0,99.0,'11111222,11111222,11144222' 
FIT,ioos:station:wmo:SIPF1:1,2015-09-01T01:45:00Z,27.8620,-80.4450,1.0,3.4,199.0,99.0,'11111222,11111222,11144222' 
FIT,ioos:station:wmo:SIPF1:1,2015-09-01T02:00:00Z,27.8620,-80.4450,1.0,3.3,191.0,99.0,'11111222,11111222,11144222' 
FIT,ioos:station:wmo:SIPF1:1,2015-09-01T02:15:00Z,27.8620,-80.4450,1.0,2.8,189.0,99.0,'11111222,11111222,11144222' 
FIT,ioos:station:wmo:SIPF1:1,2015-09-01T02:30:00Z,27.8620,-80.4450,1.0,2.9,182.0,99.0,'11111222,11111222,11144222' 
FIT,ioos:station:wmo:SIPF1:1,2015-09-01T02:45:00Z,27.8620,-80.4450,1.0,3.0,178.0,99.0,'11111222,11111222,11144222' 
FIT,ioos:station:wmo:SIPF1:1,2015-09-01T03:00:00Z,27.8620,-80.4450,1.0,3.2,171.0,99.0,'11111222,11111222,11144222' 
FIT,ioos:station:wmo:SIPF1:1,2015-09-01T03:15:00Z,27.8620,-80.4450,1.0,2.3,179.0,99.0,'11111222,11111222,11144222' 
FIT,ioos:station:wmo:SIPF1:1,2015-09-01T03:30:00Z,27.8620,-80.4450,1.0,2.3,185.0,99.0,'11111222,11111222,11144222' 
FIT,ioos:station:wmo:SIPF1:1,2015-09-01T03:45:00Z,27.8620,-80.4450,1.0,1.7,190.0,99.0,'11111222,11111222,11144222' 
FIT,ioos:station:wmo:SIPF1:1,2015-09-01T04:00:00Z,27.8620,-80.4450,1.0,1.9,189.0,99.0,'11111222,11111222,11144222' 
FIT,ioos:station:wmo:SIPF1:1,2015-09-01T04:15:00Z,27.8620,-80.4450,1.0,2.1,190.0,99.0,'11111222,11111222,11144222' 
FIT,ioos:station:wmo:SIPF1:1,2015-09-01T04:30:00Z,27.8620,-80.4450,1.0,2.3,180.0,99.0,'11111222,11111222,11144222' 
FIT,ioos:station:wmo:SIPF1:1,2015-09-01T04:45:00Z,27.8620,-80.4450,1.0,2.5,184.0,99.0,'11111222,11111222,11144222' 
FIT,ioos:station:wmo:SIPF1:1,2015-09-01T05:00:00Z,27.8620,-80.4450,1.0,2.5,193.0,99.0,'11111222,11111222,11144222' 
FIT,ioos:station:wmo:SIPF1:1,2015-09-01T05:15:00Z,27.8620,-80.4450,1.0,2.5,192.0,99.0,'11111222,11111222,11144222' 
FIT,ioos:station:wmo:SIPF1:1,2015-09-01T05:30:00Z,27.8620,-80.4450,1.0,2.4,200.0,99.0,'11111222,11111222,11144222' 
FIT,ioos:station:wmo:SIPF1:1,2015-09-01T05:45:00Z,27.8620,-80.4450,1.0,2.1,197.0,99.0,'11111222,11111222,11144222' 
FIT,ioos:station:wmo:SIPF1:1,2015-09-01T06:00:00Z,27.8620,-80.4450,1.0,2.2,195.0,99.0,'11111222,11111222,11144222' 
FIT,ioos:station:wmo:SIPF1:1,2015-09-01T06:15:00Z,27.8620,-80.4450,1.0,2.5,200.0,99.0,'11111222,11111222,11144222' 
FIT,ioos:station:wmo:SIPF1:1,2015-09-01T06:30:00Z,27.8620,-80.4450,1.0,2.7,207.0,99.0,'11111222,11111222,11144222' 
FIT,ioos:station:wmo:SIPF1:1,2015-09-01T06:45:00Z,27.8620,-80.4450,1.0,2.2,220.0,99.0,'11111222,11111222,11144222' 
FIT,ioos:station:wmo:SIPF1:1,2015-09-01T07:00:00Z,27.8620,-80.4450,1.0,2.0,201.0,99.0,'11111222,11111222,11144222' 
FIT,ioos:station:wmo:SIPF1:1,2015-09-01T07:15:00Z,27.8620,-80.4450,1.0,1.6,204.0,99.0,'11111222,11111222,11144222' 
FIT,ioos:station:wmo:SIPF1:1,2015-09-01T07:30:00Z,27.8620,-80.4450,1.0,1.9,235.0,99.0,'11111222,11111222,11144222' 
FIT,ioos:station:wmo:SIPF1:1,2015-09-01T07:45:00Z,27.8620,-80.4450,1.0,1.9,229.0,99.0,'11111222,11111222,11144222' 
FIT,ioos:station:wmo:SIPF1:1,2015-09-01T08:00:00Z,27.8620,-80.4450,1.0,1.5,231.0,99.0,'11111222,11111222,11144222' 
FIT,ioos:station:wmo:SIPF1:1,2015-09-01T08:15:00Z,27.8620,-80.4450,1.0,1.5,245.0,99.0,'11111222,11111222,11144222' 
FIT,ioos:station:wmo:SIPF1:1,2015-09-01T08:30:00Z,27.8620,-80.4450,1.0,1.1,250.0,99.0,'11111222,11111222,11144222' 
FIT,ioos:station:wmo:SIPF1:1,2015-09-01T08:45:00Z,27.8620,-80.4450,1.0,0.8,231.0,99.0,'11111222,11111222,11144222' 
FIT,ioos:station:wmo:SIPF1:1,2015-09-01T09:00:00Z,27.8620,-80.4450,1.0,0.6,225.0,99.0,'11111222,11111222,11144222' 
FIT,ioos:station:wmo:SIPF1:1,2015-09-01T09:15:00Z,27.8620,-80.4450,1.0,0.8,246.0,99.0,'11111222,11111222,11144222' 
FIT,ioos:station:wmo:SIPF1:1,2015-09-01T09:30:00Z,27.8620,-80.4450,1.0,1.3,244.0,99.0,'11111222,11111222,11144222' 
FIT,ioos:station:wmo:SIPF1:1,2015-09-01T09:45:00Z,27.8620,-80.4450,1.0,1.4,264.0,99.0,'11111222,11111222,11144222' 
FIT,ioos:station:wmo:SIPF1:1,2015-09-01T10:00:00Z,27.8620,-80.4450,1.0,1.7,273.0,99.0,'11111222,11111222,11144222' 
FIT,ioos:station:wmo:SIPF1:1,2015-09-01T10:15:00Z,27.8620,-80.4450,1.0,1.2,254.0,99.0,'11111222,11111222,11144222' 
FIT,ioos:station:wmo:SIPF1:1,2015-09-01T10:30:00Z,27.8620,-80.4450,1.0,1.5,252.0,99.0,'11111222,11111222,11144222' 
FIT,ioos:station:wmo:SIPF1:1,2015-09-01T10:45:00Z,27.8620,-80.4450,1.0,1.3,253.0,99.0,'11111222,11111222,11144222' 
FIT,ioos:station:wmo:SIPF1:1,2015-09-01T11:00:00Z,27.8620,-80.4450,1.0,1.4,254.0,99.0,'11111222,11111222,11144222' 
FIT,ioos:station:wmo:SIPF1:1,2015-09-01T11:15:00Z,27.8620,-80.4450,1.0,1.1,246.0,99.0,'11111222,11111222,11144222' 
FIT,ioos:station:wmo:SIPF1:1,2015-09-01T11:30:00Z,27.8620,-80.4450,1.0,1.5,236.0,99.0,'11111222,11111222,11144222' 
FIT,ioos:station:wmo:SIPF1:1,2015-09-01T11:45:00Z,27.8620,-80.4450,1.0,0.8,225.0,99.0,'11111222,11111222,11144222' 
FIT,ioos:station:wmo:SIPF1:1,2015-09-01T12:00:00Z,27.8620,-80.4450,1.0,1.1,235.0,99.0,'11111222,11111222,11144222' 
FIT,ioos:station:wmo:SIPF1:1,2015-09-01T12:15:00Z,27.8620,-80.4450,1.0,1.2,235.0,99.0,'11111222,11111222,11144222' 
FIT,ioos:station:wmo:SIPF1:1,2015-09-01T12:30:00Z,27.8620,-80.4450,1.0,1.6,242.0,99.0,'11111222,11111222,11144222' 
FIT,ioos:station:wmo:SIPF1:1,2015-09-01T12:45:00Z,27.8620,-80.4450,1.0,1.7,229.0,99.0,'11111222,11111222,11144222' 
FIT,ioos:station:wmo:SIPF1:1,2015-09-01T13:00:00Z,27.8620,-80.4450,1.0,1.6,193.0,99.0,'11111222,11111222,11144222' 
FIT,ioos:station:wmo:SIPF1:1,2015-09-01T13:15:00Z,27.8620,-80.4450,1.0,1.6,188.0,99.0,'11111222,11111222,11144222' 
FIT,ioos:station:wmo:SIPF1:1,2015-09-01T13:30:00Z,27.8620,-80.4450,1.0,1.7,164.0,99.0,'11111222,11111222,11144222' 
FIT,ioos:station:wmo:SIPF1:1,2015-09-01T13:45:00Z,27.8620,-80.4450,1.0,1.5,152.0,99.0,'11111222,11111222,11144222' 
FIT,ioos:station:wmo:SIPF1:1,2015-09-01T14:00:00Z,27.8620,-80.4450,1.0,1.5,149.0,99.0,'11111222,11111222,11144222' 
FIT,ioos:station:wmo:SIPF1:1,2015-09-01T14:15:00Z,27.8620,-80.4450,1.0,2.0,145.0,99.0,'11111222,11111222,11144222' 
FIT,ioos:station:wmo:SIPF1:1,2015-09-01T14:30:00Z,27.8620,-80.4450,1.0,2.1,153.0,99.0,'11111222,11111222,11144222' 
FIT,ioos:station:wmo:SIPF1:1,2015-09-01T14:45:00Z,27.8620,-80.4450,1.0,1.8,121.0,99.0,'11111222,11111222,11144222' 
FIT,ioos:station:wmo:SIPF1:1,2015-09-01T15:00:00Z,27.8620,-80.4450,1.0,2.1,101.0,99.0,'11111222,11111222,11144222' 
FIT,ioos:station:wmo:SIPF1:1,2015-09-01T15:15:00Z,27.8620,-80.4450,1.0,2.2,99.0,99.0,'11111222,11111222,11144222' 
FIT,ioos:station:wmo:SIPF1:1,2015-09-01T15:30:00Z,27.8620,-80.4450,1.0,2.0,99.0,99.0,'11111222,11111222,11144222' 
FIT,ioos:station:wmo:SIPF1:1,2015-09-01T15:45:00Z,27.8620,-80.4450,1.0,2.1,97.0,99.0,'11111222,11111222,11144222' 
FIT,ioos:station:wmo:SIPF1:1,2015-09-01T16:00:00Z,27.8620,-80.4450,1.0,3.0,94.0,99.0,'11111222,11111222,11144222' 
FIT,ioos:station:wmo:SIPF1:1,2015-09-01T16:15:00Z,27.8620,-80.4450,1.0,3.3,99.0,99.0,'11111222,11111222,11144222' 
FIT,ioos:station:wmo:SIPF1:1,2015-09-01T16:30:00Z,27.8620,-80.4450,1.0,3.6,108.0,99.0,'11111222,11111222,11144222' 
FIT,ioos:station:wmo:SIPF1:1,2015-09-01T16:45:00Z,27.8620,-80.4450,1.0,3.8,109.0,99.0,'11111222,11111222,11144222' 
FIT,ioos:station:wmo:SIPF1:1,2015-09-01T17:00:00Z,27.8620,-80.4450,1.0,3.9,109.0,99.0,'11111222,11111222,11144222' 
FIT,ioos:station:wmo:SIPF1:1,2015-09-01T17:15:00Z,27.8620,-80.4450,1.0,3.8,104.0,99.0,'11111222,11111222,11144222' 
FIT,ioos:station:wmo:SIPF1:1,2015-09-01T17:30:00Z,27.8620,-80.4450,1.0,3.8,103.0,99.0,'11111222,11111222,11144222' 
FIT,ioos:station:wmo:SIPF1:1,2015-09-01T17:45:00Z,27.8620,-80.4450,1.0,3.9,104.0,99.0,'11111222,11111222,11144222' 
FIT,ioos:station:wmo:SIPF1:1,2015-09-01T18:00:00Z,27.8620,-80.4450,1.0,4.1,110.0,99.0,'11111222,11111222,11144222' 
FIT,ioos:station:wmo:SIPF1:1,2015-09-01T18:15:00Z,27.8620,-80.4450,1.0,4.5,109.0,99.0,'11111222,11111222,11144222' 
FIT,ioos:station:wmo:SIPF1:1,2015-09-01T18:30:00Z,27.8620,-80.4450,1.0,4.7,110.0,99.0,'11111222,11111222,11144222' 
FIT,ioos:station:wmo:SIPF1:1,2015-09-01T18:45:00Z,27.8620,-80.4450,1.0,4.5,114.0,99.0,'11111222,11111222,11144222' 
FIT,ioos:station:wmo:SIPF1:1,2015-09-01T19:00:00Z,27.8620,-80.4450,1.0,4.3,111.0,99.0,'11111222,11111222,11144222' 
FIT,ioos:station:wmo:SIPF1:1,2015-09-01T19:15:00Z,27.8620,-80.4450,1.0,4.6,115.0,99.0,'11111222,11111222,11144222' 
FIT,ioos:station:wmo:SIPF1:1,2015-09-01T19:30:00Z,27.8620,-80.4450,1.0,4.9,113.0,99.0,'11111222,11111222,11144222' 
FIT,ioos:station:wmo:SIPF1:1,2015-09-01T19:45:00Z,27.8620,-80.4450,1.0,4.5,111.0,99.0,'11111222,11111222,11144222' 
FIT,ioos:station:wmo:SIPF1:1,2015-09-01T20:00:00Z,27.8620,-80.4450,1.0,4.6,113.0,99.0,'11111222,11111222,11144222' 
FIT,ioos:station:wmo:SIPF1:1,2015-09-01T20:15:00Z,27.8620,-80.4450,1.0,5.1,112.0,99.0,'11111222,11111222,11144222' 
FIT,ioos:station:wmo:SIPF1:1,2015-09-01T20:30:00Z,27.8620,-80.4450,1.0,5.3,110.0,99.0,'11111222,11111222,11144222' 
FIT,ioos:station:wmo:SIPF1:1,2015-09-01T20:45:00Z,27.8620,-80.4450,1.0,5.2,107.0,99.0,'11111222,11111222,11144222' 
FIT,ioos:station:wmo:SIPF1:1,2015-09-01T21:00:00Z,27.8620,-80.4450,1.0,4.9,114.0,99.0,'11111222,11111222,11144222' 
FIT,ioos:station:wmo:SIPF1:1,2015-09-01T21:30:00Z,27.8620,-80.4450,1.0,5.2,111.0,99.0,'11111222,11111222,11144222' 
FIT,ioos:station:wmo:SIPF1:1,2015-09-01T21:45:00Z,27.8620,-80.4450,1.0,5.5,118.0,99.0,'11111222,11111222,11144222' 
FIT,ioos:station:wmo:SIPF1:1,2015-09-01T22:00:00Z,27.8620,-80.4450,1.0,5.3,118.0,99.0,'11111222,11111222,11144222' 
FIT,ioos:station:wmo:SIPF1:1,2015-09-01T22:15:00Z,27.8620,-80.4450,1.0,6.0,117.0,99.0,'11111222,11111222,11144222' 
FIT,ioos:station:wmo:SIPF1:1,2015-09-01T22:30:00Z,27.8620,-80.4450,1.0,5.1,123.0,99.0,'11111222,11111222,11144222' 
FIT,ioos:station:wmo:SIPF1:1,2015-09-01T22:45:00Z,27.8620,-80.4450,1.0,5.3,130.0,99.0,'11111222,11111222,11144222' 
FIT,ioos:station:wmo:SIPF1:1,2015-09-01T23:00:00Z,27.8620,-80.4450,1.0,5.4,130.0,99.0,'11111222,11111222,11144222' 
FIT,ioos:station:wmo:SIPF1:1,2015-09-01T23:15:00Z,27.8620,-80.4450,1.0,5.4,131.0,99.0,'11111222,11111222,11144222' 
FIT,ioos:station:wmo:SIPF1:1,2015-09-01T23:30:00Z,27.8620,-80.4450,1.0,5.1,129.0,99.0,'11111222,11111222,11144222' 
FIT,ioos:station:wmo:SIPF1:1,2015-09-01T23:45:00Z,27.8620,-80.4450,1.0,5.5,128.0,99.0,'11111222,11111222,11144222' 
FIT,ioos:station:wmo:SIPF1:1,2015-09-02T00:00:00Z,27.8620,-80.4450,1.0,5.5,130.0,99.0,'11111222,11111222,11144222' 
FIT,ioos:station:wmo:SIPF1:1,2015-09-02T00:15:00Z,27.8620,-80.4450,1.0,5.7,133.0,99.0,'11111222,11111222,11144222' 
FIT,ioos:station:wmo:SIPF1:1,2015-09-02T00:30:00Z,27.8620,-80.4450,1.0,6.1,133.0,99.0,'11111222,11111222,11144222' 
FIT,ioos:station:wmo:SIPF1:1,2015-09-02T00:45:00Z,27.8620,-80.4450,1.0,5.9,138.0,99.0,'11111222,11111222,11144222' 
FIT,ioos:station:wmo:SIPF1:1,2015-09-02T01:00:00Z,27.8620,-80.4450,1.0,5.8,137.0,99.0,'11111222,11111222,11144222' 
FIT,ioos:station:wmo:SIPF1:1,2015-09-02T01:15:00Z,27.8620,-80.4450,1.0,5.8,135.0,99.0,'11111222,11111222,11144222' 
FIT,ioos:station:wmo:SIPF1:1,2015-09-02T01:30:00Z,27.8620,-80.4450,1.0,5.9,136.0,99.0,'11111222,11111222,11144222' 
FIT,ioos:station:wmo:SIPF1:1,2015-09-02T01:45:00Z,27.8620,-80.4450,1.0,5.5,137.0,99.0,'11111222,11111222,11144222' 
FIT,ioos:station:wmo:SIPF1:1,2015-09-02T02:00:00Z,27.8620,-80.4450,1.0,5.5,139.0,99.0,'11111222,11111222,11144222' 
FIT,ioos:station:wmo:SIPF1:1,2015-09-02T02:15:00Z,27.8620,-80.4450,1.0,5.9,141.0,99.0,'11111222,11111222,11144222' 
FIT,ioos:station:wmo:SIPF1:1,2015-09-02T02:30:00Z,27.8620,-80.4450,1.0,5.8,140.0,99.0,'11111222,11111222,11144222' 
FIT,ioos:station:wmo:SIPF1:1,2015-09-02T02:45:00Z,27.8620,-80.4450,1.0,6.0,147.0,99.0,'11111222,11111222,11144222' 
FIT,ioos:station:wmo:SIPF1:1,2015-09-02T03:00:00Z,27.8620,-80.4450,1.0,6.3,152.0,99.0,'11111222,11111222,11144222' 
FIT,ioos:station:wmo:SIPF1:1,2015-09-02T03:15:00Z,27.8620,-80.4450,1.0,6.6,155.0,99.0,'11111222,11111222,11144222' 
FIT,ioos:station:wmo:SIPF1:1,2015-09-02T03:30:00Z,27.8620,-80.4450,1.0,6.4,156.0,99.0,'11111222,11111222,11144222' 
FIT,ioos:station:wmo:SIPF1:1,2015-09-02T03:45:00Z,27.8620,-80.4450,1.0,6.2,157.0,99.0,'11111222,11111222,11144222' 
FIT,ioos:station:wmo:SIPF1:1,2015-09-02T04:00:00Z,27.8620,-80.4450,1.0,6.1,153.0,99.0,'11111222,11111222,11144222' 
FIT,ioos:station:wmo:SIPF1:1,2015-09-02T04:15:00Z,27.8620,-80.4450,1.0,6.4,153.0,99.0,'11111222,11111222,11144222' 
FIT,ioos:station:wmo:SIPF1:1,2015-09-02T04:45:00Z,27.8620,-80.4450,1.0,6.1,159.0,99.0,'11111222,11111222,11144222' 
FIT,ioos:station:wmo:SIPF1:1,2015-09-02T05:00:00Z,27.8620,-80.4450,1.0,5.3,163.0,99.0,'11111222,11111222,11144222' 
FIT,ioos:station:wmo:SIPF1:1,2015-09-02T05:15:00Z,27.8620,-80.4450,1.0,4.9,167.0,99.0,'11111222,11111222,11144222' 
FIT,ioos:station:wmo:SIPF1:1,2015-09-02T05:30:00Z,27.8620,-80.4450,1.0,4.5,172.0,99.0,'11111222,11111222,11144222' 
FIT,ioos:station:wmo:SIPF1:1,2015-09-02T05:45:00Z,27.8620,-80.4450,1.0,2.9,182.0,99.0,'11111222,11111222,11144222' 
FIT,ioos:station:wmo:SIPF1:1,2015-09-02T06:00:00Z,27.8620,-80.4450,1.0,1.9,189.0,99.0,'11111222,11111222,11144222' 
FIT,ioos:station:wmo:SIPF1:1,2015-09-02T06:15:00Z,27.8620,-80.4450,1.0,1.7,213.0,99.0,'11111222,11111222,11144222' 
FIT,ioos:station:wmo:SIPF1:1,2015-09-02T06:30:00Z,27.8620,-80.4450,1.0,2.1,211.0,99.0,'11111222,11111222,11144222' 
FIT,ioos:station:wmo:SIPF1:1,2015-09-02T06:45:00Z,27.8620,-80.4450,1.0,1.8,208.0,99.0,'11111222,11111222,11144222' 
FIT,ioos:station:wmo:SIPF1:1,2015-09-02T07:00:00Z,27.8620,-80.4450,1.0,2.2,216.0,99.0,'11111222,11111222,11144222' 
FIT,ioos:station:wmo:SIPF1:1,2015-09-02T07:15:00Z,27.8620,-80.4450,1.0,1.7,219.0,99.0,'11111222,11111222,11144222' 
FIT,ioos:station:wmo:SIPF1:1,2015-09-02T07:30:00Z,27.8620,-80.4450,1.0,1.7,213.0,99.0,'11111222,11111222,11144222' 
FIT,ioos:station:wmo:SIPF1:1,2015-09-02T07:45:00Z,27.8620,-80.4450,1.0,2.1,215.0,99.0,'11111222,11111222,11144222' 
FIT,ioos:station:wmo:SIPF1:1,2015-09-02T08:00:00Z,27.8620,-80.4450,1.0,2.2,206.0,99.0,'11111222,11111222,11144222' 
FIT,ioos:station:wmo:SIPF1:1,2015-09-02T08:15:00Z,27.8620,-80.4450,1.0,2.0,211.0,99.0,'11111222,11111222,11144222' 
FIT,ioos:station:wmo:SIPF1:1,2015-09-02T08:30:00Z,27.8620,-80.4450,1.0,2.3,215.0,99.0,'11111222,11111222,11144222' 
FIT,ioos:station:wmo:SIPF1:1,2015-09-02T08:45:00Z,27.8620,-80.4450,1.0,2.0,223.0,99.0,'11111222,11111222,11144222' 
FIT,ioos:station:wmo:SIPF1:1,2015-09-02T09:00:00Z,27.8620,-80.4450,1.0,2.1,216.0,99.0,'11111222,11111222,11144222' 
FIT,ioos:station:wmo:SIPF1:1,2015-09-02T09:15:00Z,27.8620,-80.4450,1.0,1.7,220.0,99.0,'11111222,11111222,11144222' 
FIT,ioos:station:wmo:SIPF1:1,2015-09-02T09:30:00Z,27.8620,-80.4450,1.0,1.8,217.0,99.0,'11111222,11111222,11144222' 
FIT,ioos:station:wmo:SIPF1:1,2015-09-02T09:45:00Z,27.8620,-80.4450,1.0,2.2,226.0,99.0,'11111222,11111222,11144222' 
FIT,ioos:station:wmo:SIPF1:1,2015-09-02T10:00:00Z,27.8620,-80.4450,1.0,2.2,226.0,99.0,'11111222,11111222,11144222' 
FIT,ioos:station:wmo:SIPF1:1,2015-09-02T10:15:00Z,27.8620,-80.4450,1.0,2.2,221.0,99.0,'11111222,11111222,11144222' 
FIT,ioos:station:wmo:SIPF1:1,2015-09-02T10:30:00Z,27.8620,-80.4450,1.0,1.8,214.0,99.0,'11111222,11111222,11144222' 
FIT,ioos:station:wmo:SIPF1:1,2015-09-02T10:45:00Z,27.8620,-80.4450,1.0,2.0,232.0,99.0,'11111222,11111222,11144222' 
FIT,ioos:station:wmo:SIPF1:1,2015-09-02T11:00:00Z,27.8620,-80.4450,1.0,1.9,249.0,99.0,'11111222,11111222,11144222' 
FIT,ioos:station:wmo:SIPF1:1,2015-09-02T11:15:00Z,27.8620,-80.4450,1.0,2.1,231.0,99.0,'11111222,11111222,11144222' 
FIT,ioos:station:wmo:SIPF1:1,2015-09-02T11:30:00Z,27.8620,-80.4450,1.0,2.0,221.0,99.0,'11111222,11111222,11144222' 
FIT,ioos:station:wmo:SIPF1:1,2015-09-02T11:45:00Z,27.8620,-80.4450,1.0,2.0,233.0,99.0,'11111222,11111222,11144222' 
FIT,ioos:station:wmo:SIPF1:1,2015-09-02T12:00:00Z,27.8620,-80.4450,1.0,2.0,236.0,99.0,'11111222,11111222,11144222' 
FIT,ioos:station:wmo:SIPF1:1,2015-09-02T12:15:00Z,27.8620,-80.4450,1.0,2.0,251.0,99.0,'11111222,11111222,11144222' 
FIT,ioos:station:wmo:SIPF1:1,2015-09-02T12:30:00Z,27.8620,-80.4450,1.0,2.0,247.0,99.0,'11111222,11111222,11144222' 
FIT,ioos:station:wmo:SIPF1:1,2015-09-02T12:45:00Z,27.8620,-80.4450,1.0,2.2,249.0,99.0,'11111222,11111222,11144222' 
FIT,ioos:station:wmo:SIPF1:1,2015-09-02T13:00:00Z,27.8620,-80.4450,1.0,2.5,250.0,99.0,'11111222,11111222,11144222' 
FIT,ioos:station:wmo:SIPF1:1,2015-09-02T13:15:00Z,27.8620,-80.4450,1.0,2.7,242.0,99.0,'11111222,11111222,11144222' 
FIT,ioos:station:wmo:SIPF1:1,2015-09-02T13:30:00Z,27.8620,-80.4450,1.0,2.8,240.0,99.0,'11111222,11111222,11144222' 
FIT,ioos:station:wmo:SIPF1:1,2015-09-02T13:45:00Z,27.8620,-80.4450,1.0,2.9,243.0,99.0,'11111222,11111222,11144222' 
FIT,ioos:station:wmo:SIPF1:1,2015-09-02T14:00:00Z,27.8620,-80.4450,1.0,2.7,239.0,99.0,'11111222,11111222,11144222' 
FIT,ioos:station:wmo:SIPF1:1,2015-09-02T14:15:00Z,27.8620,-80.4450,1.0,2.7,235.0,99.0,'11111222,11111222,11144222' 
FIT,ioos:station:wmo:SIPF1:1,2015-09-02T14:30:00Z,27.8620,-80.4450,1.0,2.2,238.0,99.0,'11111222,11111222,11144222' 
FIT,ioos:station:wmo:SIPF1:1,2015-09-02T14:45:00Z,27.8620,-80.4450,1.0,2.0,244.0,99.0,'11111222,11111222,11144222' 
FIT,ioos:station:wmo:SIPF1:1,2015-09-02T15:00:00Z,27.8620,-80.4450,1.0,1.8,234.0,99.0,'11111222,11111222,11144222' 
FIT,ioos:station:wmo:SIPF1:1,2015-09-02T15:15:00Z,27.8620,-80.4450,1.0,1.5,205.0,99.0,'11111222,11111222,11144222' 
FIT,ioos:station:wmo:SIPF1:1,2015-09-02T15:30:00Z,27.8620,-80.4450,1.0,1.8,249.0,99.0,'11111222,11111222,11144222' 
FIT,ioos:station:wmo:SIPF1:1,2015-09-02T15:45:00Z,27.8620,-80.4450,1.0,2.1,239.0,99.0,'11111222,11111222,11144222' 
FIT,ioos:station:wmo:SIPF1:1,2015-09-02T16:00:00Z,27.8620,-80.4450,1.0,1.6,231.0,99.0,'11111222,11111222,11144222' 
FIT,ioos:station:wmo:SIPF1:1,2015-09-02T16:15:00Z,27.8620,-80.4450,1.0,1.2,243.0,99.0,'11111222,11111222,11144222' 
FIT,ioos:station:wmo:SIPF1:1,2015-09-02T16:30:00Z,27.8620,-80.4450,1.0,2.0,92.0,99.0,'11111222,11111222,11144222' 
FIT,ioos:station:wmo:SIPF1:1,2015-09-02T16:45:00Z,27.8620,-80.4450,1.0,2.9,88.0,99.0,'11111222,11111222,11144222' 
FIT,ioos:station:wmo:SIPF1:1,2015-09-02T17:00:00Z,27.8620,-80.4450,1.0,3.5,102.0,99.0,'11111222,11111222,11144222' 
FIT,ioos:station:wmo:SIPF1:1,2015-09-02T17:15:00Z,27.8620,-80.4450,1.0,3.9,107.0,99.0,'11111222,11111222,11144222' 
FIT,ioos:station:wmo:SIPF1:1,2015-09-02T17:30:00Z,27.8620,-80.4450,1.0,4.0,98.0,99.0,'11111222,11111222,11144222' 
FIT,ioos:station:wmo:SIPF1:1,2015-09-02T17:45:00Z,27.8620,-80.4450,1.0,4.0,89.0,99.0,'11111222,11111222,11144222' 
FIT,ioos:station:wmo:SIPF1:1,2015-09-02T18:00:00Z,27.8620,-80.4450,1.0,4.0,97.0,99.0,'11111222,11111222,11144222' 
FIT,ioos:station:wmo:SIPF1:1,2015-09-02T18:15:00Z,27.8620,-80.4450,1.0,4.2,89.0,99.0,'11111222,11111222,11144222' 
FIT,ioos:station:wmo:SIPF1:1,2015-09-02T18:30:00Z,27.8620,-80.4450,1.0,4.4,93.0,99.0,'11111222,11111222,11144222' 
FIT,ioos:station:wmo:SIPF1:1,2015-09-02T18:45:00Z,27.8620,-80.4450,1.0,4.5,95.0,99.0,'11111222,11111222,11144222' 
FIT,ioos:station:wmo:SIPF1:1,2015-09-02T19:00:00Z,27.8620,-80.4450,1.0,5.1,99.0,99.0,'11111222,11111222,11144222' 
FIT,ioos:station:wmo:SIPF1:1,2015-09-02T19:15:00Z,27.8620,-80.4450,1.0,5.4,102.0,99.0,'11111222,11111222,11144222' 
FIT,ioos:station:wmo:SIPF1:1,2015-09-02T19:30:00Z,27.8620,-80.4450,1.0,5.3,97.0,99.0,'11111222,11111222,11144222' 
FIT,ioos:station:wmo:SIPF1:1,2015-09-02T19:45:00Z,27.8620,-80.4450,1.0,5.3,101.0,99.0,'11111222,11111222,11144222' 
FIT,ioos:station:wmo:SIPF1:1,2015-09-02T20:00:00Z,27.8620,-80.4450,1.0,5.6,100.0,99.0,'11111222,11111222,11144222' 
FIT,ioos:station:wmo:SIPF1:1,2015-09-02T20:15:00Z,27.8620,-80.4450,1.0,5.3,104.0,99.0,'11111222,11111222,11144222' 
FIT,ioos:station:wmo:SIPF1:1,2015-09-02T20:30:00Z,27.8620,-80.4450,1.0,5.6,104.0,99.0,'11111222,11111222,11144222' 
FIT,ioos:station:wmo:SIPF1:1,2015-09-02T20:45:00Z,27.8620,-80.4450,1.0,5.4,107.0,99.0,'11111222,11111222,11144222' 
FIT,ioos:station:wmo:SIPF1:1,2015-09-02T21:00:00Z,27.8620,-80.4450,1.0,5.5,108.0,99.0,'11111222,11111222,11144222' 
FIT,ioos:station:wmo:SIPF1:1,2015-09-02T21:15:00Z,27.8620,-80.4450,1.0,5.6,109.0,99.0,'11111222,11111222,11144222' 
FIT,ioos:station:wmo:SIPF1:1,2015-09-02T21:30:00Z,27.8620,-80.4450,1.0,5.6,116.0,99.0,'11111222,11111222,11144222' 
FIT,ioos:station:wmo:SIPF1:1,2015-09-02T21:45:00Z,27.8620,-80.4450,1.0,5.8,123.0,99.0,'11111222,11111222,11144222' 
FIT,ioos:station:wmo:SIPF1:1,2015-09-02T22:00:00Z,27.8620,-80.4450,1.0,5.8,123.0,99.0,'11111222,11111222,11144222' 
FIT,ioos:station:wmo:SIPF1:1,2015-09-02T22:15:00Z,27.8620,-80.4450,1.0,5.9,122.0,99.0,'11111222,11111222,11144222' 
FIT,ioos:station:wmo:SIPF1:1,2015-09-02T22:30:00Z,27.8620,-80.4450,1.0,5.7,124.0,99.0,'11111222,11111222,11144222' 
FIT,ioos:station:wmo:SIPF1:1,2015-09-02T22:45:00Z,27.8620,-80.4450,1.0,5.6,130.0,99.0,'11111222,11111222,11144222' 
FIT,ioos:station:wmo:SIPF1:1,2015-09-02T23:00:00Z,27.8620,-80.4450,1.0,5.8,130.0,99.0,'11111222,11111222,11144222' 
FIT,ioos:station:wmo:SIPF1:1,2015-09-02T23:15:00Z,27.8620,-80.4450,1.0,5.7,131.0,99.0,'11111222,11111222,11144222' 
FIT,ioos:station:wmo:SIPF1:1,2015-09-02T23:30:00Z,27.8620,-80.4450,1.0,5.5,128.0,99.0,'11111222,11111222,11144222' 
FIT,ioos:station:wmo:SIPF1:1,2015-09-02T23:45:00Z,27.8620,-80.4450,1.0,5.6,136.0,99.0,'11111222,11111222,11144222' 
FIT,ioos:station:wmo:SIPF1:1,2015-09-03T00:00:00Z,27.8620,-80.4450,1.0,6.0,142.0,99.0,'11111222,11111222,11144222' 
FIT,ioos:station:wmo:SIPF1:1,2015-09-03T00:15:00Z,27.8620,-80.4450,1.0,6.0,144.0,99.0,'11111222,11111222,11144222' 
FIT,ioos:station:wmo:SIPF1:1,2015-09-03T00:30:00Z,27.8620,-80.4450,1.0,6.0,149.0,99.0,'11111222,11111222,11144222' 
FIT,ioos:station:wmo:SIPF1:1,2015-09-03T00:45:00Z,27.8620,-80.4450,1.0,5.2,151.0,99.0,'11111222,11111222,11144222' 
FIT,ioos:station:wmo:SIPF1:1,2015-09-03T01:00:00Z,27.8620,-80.4450,1.0,5.2,149.0,99.0,'11111222,11111222,11144222' 
FIT,ioos:station:wmo:SIPF1:1,2015-09-03T01:15:00Z,27.8620,-80.4450,1.0,5.4,150.0,99.0,'11111222,11111222,11144222' 
FIT,ioos:station:wmo:SIPF1:1,2015-09-03T01:30:00Z,27.8620,-80.4450,1.0,5.8,158.0,99.0,'11111222,11111222,11144222' 
FIT,ioos:station:wmo:SIPF1:1,2015-09-03T01:45:00Z,27.8620,-80.4450,1.0,5.4,161.0,99.0,'11111222,11111222,11144222' 
FIT,ioos:station:wmo:SIPF1:1,2015-09-03T02:00:00Z,27.8620,-80.4450,1.0,4.6,173.0,99.0,'11111222,11111222,11144222' 
FIT,ioos:station:wmo:SIPF1:1,2015-09-03T02:15:00Z,27.8620,-80.4450,1.0,4.6,172.0,99.0,'11111222,11111222,11144222' 
FIT,ioos:station:wmo:SIPF1:1,2015-09-03T02:30:00Z,27.8620,-80.4450,1.0,4.9,177.0,99.0,'11111222,11111222,11144222' 
FIT,ioos:station:wmo:SIPF1:1,2015-09-03T02:45:00Z,27.8620,-80.4450,1.0,5.2,173.0,99.0,'11111222,11111222,11144222' 
FIT,ioos:station:wmo:SIPF1:1,2015-09-03T03:00:00Z,27.8620,-80.4450,1.0,4.6,176.0,99.0,'11111222,11111222,11144222' 
FIT,ioos:station:wmo:SIPF1:1,2015-09-03T03:15:00Z,27.8620,-80.4450,1.0,4.2,172.0,99.0,'11111222,11111222,11144222' 
FIT,ioos:station:wmo:SIPF1:1,2015-09-03T03:30:00Z,27.8620,-80.4450,1.0,3.3,184.0,99.0,'11111222,11111222,11144222' 
FIT,ioos:station:wmo:SIPF1:1,2015-09-03T03:45:00Z,27.8620,-80.4450,1.0,3.4,186.0,99.0,'11111222,11111222,11144222' 
FIT,ioos:station:wmo:SIPF1:1,2015-09-03T04:00:00Z,27.8620,-80.4450,1.0,3.8,190.0,99.0,'11111222,11111222,11144222' 